When you browse on this site, cookies collect data to enhance your experience and personalize the content and advertising you see.
Visit our Privacy Policy to learn more. By continuing to use the site, you agree to this use of cookies and data.
  • en Suisse
  • Liste des pays
  • À 7 jours
  • Température de l'eau
  • Carte météo
  • Widgets météo
  • user-avatar
    Se connecter

    Météo par heure à Lugo

    Ce jour, 26 Janvier, Dimanche

    Heure Température Précipitation Vent Pression Humidité
    00:00 +4°C° 0 mm 1 m/s 723 mmHg 97%
    01:00 +4°C° 0 mm 1 m/s 723 mmHg 97%
    02:00 +4°C° 0 mm 1 m/s 723 mmHg 97%
    03:00 +4°C° 0 mm 1 m/s 723 mmHg 97%
    04:00 +4°C° 0 mm 1 m/s 723 mmHg 97%
    05:00 +3°C° 0 mm 1 m/s 724 mmHg 97%
    06:00 +4°C° 0 mm 1 m/s 724 mmHg 95%
    07:00 +4°C° 0 mm 2 m/s 724 mmHg 93%
    08:00 +4°C° 0 mm 2 m/s 724 mmHg 91%
    09:00 +6°C° 0 mm 2 m/s 724 mmHg 86%
    10:00 +7°C° 0 mm 3 m/s 725 mmHg 81%
    11:00 +9°C° 0 mm 3 m/s 725 mmHg 75%
    12:00 +9°C° 0 mm 3 m/s 724 mmHg 75%
    13:00 +9°C° 0 mm 3 m/s 724 mmHg 75%
    14:00 +10°C° 0 mm 3 m/s 724 mmHg 75%
    15:00 +9°C° 0 mm 3 m/s 724 mmHg 78%
    16:00 +9°C° 0 mm 3 m/s 724 mmHg 81%
    17:00 +8°C° 0 mm 3 m/s 723 mmHg 84%
    18:00 +8°C° 0 mm 3 m/s 724 mmHg 84%
    19:00 +8°C° 0 mm 3 m/s 724 mmHg 85%
    20:00 +8°C° 0 mm 3 m/s 724 mmHg 85%
    21:00 +8°C° 0.3 mm 3 m/s 724 mmHg 88%
    22:00 +8°C° 0.3 mm 3 m/s 723 mmHg 90%
    23:00 +8°C° 0.3 mm 3 m/s 723 mmHg 93%

    Demain, 27 Janvier, Lundi

    Heure Température Précipitation Vent Pression Humidité
    00:00 +8°C° 1 mm 3 m/s 723 mmHg 94%
    01:00 +8°C° 1 mm 3 m/s 723 mmHg 95%
    02:00 +8°C° 1 mm 3 m/s 722 mmHg 96%
    03:00 +8°C° 0.5 mm 3 m/s 722 mmHg 96%
    04:00 +8°C° 0.5 mm 2 m/s 722 mmHg 96%
    05:00 +8°C° 0.5 mm 2 m/s 721 mmHg 96%
    06:00 +8°C° 0.1 mm 2 m/s 721 mmHg 96%
    07:00 +8°C° 0.1 mm 2 m/s 721 mmHg 96%
    08:00 +8°C° 0.1 mm 2 m/s 721 mmHg 95%
    09:00 +9°C° 0 mm 3 m/s 721 mmHg 92%
    10:00 +8°C° 0 mm 4 m/s 721 mmHg 89%
    11:00 +10°C° 0 mm 4 m/s 721 mmHg 86%
    12:00 +10°C° 0.2 mm 4 m/s 721 mmHg 88%
    13:00 +8°C° 0.2 mm 4 m/s 720 mmHg 90%
    14:00 +8°C° 0.2 mm 4 m/s 720 mmHg 92%
    15:00 +8°C° 0.4 mm 4 m/s 720 mmHg 93%
    16:00 +8°C° 0.4 mm 4 m/s 720 mmHg 94%
    17:00 +8°C° 0.4 mm 4 m/s 720 mmHg 95%
    18:00 +8°C° 1.1 mm 4 m/s 721 mmHg 95%
    19:00 +8°C° 1.1 mm 4 m/s 721 mmHg 96%
    20:00 +10°C° 1.1 mm 3 m/s 721 mmHg 97%
    21:00 +10°C° 0.7 mm 3 m/s 721 mmHg 96%
    22:00 +9°C° 0.7 mm 3 m/s 722 mmHg 96%
    23:00 +9°C° 0.7 mm 3 m/s 722 mmHg 96%

    Après-demain, 28 Janvier, Mardi

    Heure Température Précipitation Vent Pression Humidité
    00:00 +9°C° 0 mm 3 m/s 722 mmHg 96%
    01:00 +8°C° 0 mm 2 m/s 722 mmHg 96%
    02:00 +8°C° 0 mm 2 m/s 723 mmHg 97%
    03:00 +8°C° 0 mm 1 m/s 723 mmHg 97%
    04:00 +8°C° 0 mm 1 m/s 723 mmHg 97%
    05:00 +8°C° 0 mm 1 m/s 723 mmHg 98%
    06:00 +7°C° 0.1 mm 0 m/s 723 mmHg 98%
    07:00 +7°C° 0.1 mm 0 m/s 723 mmHg 97%
    08:00 +7°C° 0.1 mm 0 m/s 724 mmHg 97%
    09:00 +8°C° 0.3 mm 0 m/s 724 mmHg 97%
    10:00 +10°C° 0.3 mm 1 m/s 724 mmHg 96%
    11:00 +10°C° 0.3 mm 1 m/s 724 mmHg 96%
    12:00 +10°C° 1.2 mm 1 m/s 724 mmHg 97%
    13:00 +10°C° 1.2 mm 1 m/s 723 mmHg 98%
    14:00 +10°C° 1.2 mm 1 m/s 723 mmHg 98%
    15:00 +10°C° 1.2 mm 2 m/s 723 mmHg 98%
    16:00 +10°C° 1.2 mm 2 m/s 723 mmHg 98%
    17:00 +10°C° 1.2 mm 2 m/s 723 mmHg 98%
    18:00 +10°C° 1.2 mm 2 m/s 723 mmHg 98%
    19:00 +10°C° 1.2 mm 2 m/s 724 mmHg 98%
    20:00 +10°C° 1.2 mm 2 m/s 724 mmHg 98%
    21:00 +10°C° 0.2 mm 2 m/s 724 mmHg 98%
    22:00 +10°C° 0.2 mm 2 m/s 724 mmHg 97%
    23:00 +10°C° 0.2 mm 2 m/s 724 mmHg 97%

    29 Janvier, Mercredi

    Heure Température Précipitation Vent Pression Humidité
    00:00 +11°C° 0.6 mm 1 m/s 724 mmHg 98%
    01:00 +10°C° 0.6 mm 1 m/s 724 mmHg 98%
    02:00 +10°C° 0.6 mm 1 m/s 724 mmHg 99%
    03:00 +10°C° 0.7 mm 1 m/s 723 mmHg 98%
    04:00 +10°C° 0.7 mm 1 m/s 723 mmHg 98%
    05:00 +9°C° 0.7 mm 2 m/s 722 mmHg 97%
    06:00 +9°C° 1.6 mm 2 m/s 723 mmHg 97%
    07:00 +9°C° 1.6 mm 2 m/s 723 mmHg 98%
    08:00 +9°C° 1.6 mm 2 m/s 723 mmHg 98%
    09:00 +9°C° 2.9 mm 2 m/s 723 mmHg 97%
    10:00 +10°C° 2.9 mm 2 m/s 722 mmHg 97%
    11:00 +10°C° 2.9 mm 2 m/s 722 mmHg 97%
    12:00 +10°C° 2.4 mm 2 m/s 722 mmHg 97%
    13:00 +10°C° 2.4 mm 3 m/s 722 mmHg 97%
    14:00 +10°C° 2.4 mm 3 m/s 721 mmHg 96%
    15:00 +10°C° 1 mm 3 m/s 721 mmHg 96%
    16:00 +10°C° 1 mm 3 m/s 722 mmHg 95%
    17:00 +10°C° 1 mm 3 m/s 722 mmHg 94%
    18:00 +10°C° 0 mm 3 m/s 722 mmHg 94%
    19:00 +10°C° 0 mm 3 m/s 722 mmHg 94%
    20:00 +10°C° 0 mm 3 m/s 722 mmHg 93%
    21:00 +10°C° 0 mm 3 m/s 722 mmHg 93%
    22:00 +10°C° 0 mm 3 m/s 722 mmHg 92%
    23:00 +10°C° 0 mm 3 m/s 722 mmHg 91%

    30 Janvier, Jeudi

    Heure Température Précipitation Vent Pression Humidité
    00:00 +10°C° 0.2 mm 3 m/s 721 mmHg 91%
    01:00 +10°C° 0.2 mm 3 m/s 721 mmHg 91%
    02:00 +10°C° 0.2 mm 3 m/s 721 mmHg 91%
    03:00 +10°C° 0.5 mm 3 m/s 721 mmHg 92%
    04:00 +10°C° 0.5 mm 3 m/s 721 mmHg 94%
    05:00 +10°C° 0.5 mm 3 m/s 721 mmHg 95%
    06:00 +10°C° 0.3 mm 3 m/s 721 mmHg 95%
    07:00 +10°C° 0.3 mm 3 m/s 722 mmHg 95%
    08:00 +10°C° 0.3 mm 3 m/s 722 mmHg 95%
    09:00 +11°C° 0.8 mm 3 m/s 722 mmHg 95%
    10:00 +11°C° 0.8 mm 3 m/s 722 mmHg 96%
    11:00 +11°C° 0.8 mm 3 m/s 722 mmHg 96%
    12:00 +11°C° 0.4 mm 3 m/s 722 mmHg 96%
    13:00 +12°C° 0.4 mm 3 m/s 722 mmHg 96%
    14:00 +12°C° 0.4 mm 3 m/s 722 mmHg 96%
    15:00 +12°C° 0.1 mm 3 m/s 723 mmHg 97%
    16:00 +13°C° 0.1 mm 2 m/s 723 mmHg 97%
    17:00 +13°C° 0.1 mm 2 m/s 723 mmHg 97%
    18:00 +13°C° 0.1 mm 2 m/s 724 mmHg 97%
    19:00 +13°C° 0.1 mm 2 m/s 724 mmHg 97%
    20:00 +13°C° 0.1 mm 2 m/s 724 mmHg 97%
    21:00 +13°C° 0 mm 2 m/s 724 mmHg 97%
    22:00 +12°C° 0 mm 2 m/s 725 mmHg 97%
    23:00 +12°C° 0 mm 2 m/s 725 mmHg 97%

    31 Janvier, Vendredi

    Heure Température Précipitation Vent Pression Humidité
    00:00 +12°C° 0 mm 2 m/s 725 mmHg 97%
    01:00 +13°C° 0 mm 2 m/s 725 mmHg 96%
    02:00 +13°C° 0 mm 2 m/s 725 mmHg 96%
    03:00 +12°C° 0 mm 2 m/s 724 mmHg 96%
    04:00 +12°C° 0 mm 2 m/s 724 mmHg 96%
    05:00 +10°C° 0 mm 2 m/s 724 mmHg 96%
    06:00 +12°C° 0 mm 2 m/s 724 mmHg 96%
    07:00 +12°C° 0 mm 2 m/s 724 mmHg 95%
    08:00 +12°C° 0 mm 2 m/s 725 mmHg 94%
    09:00 +13°C° 0 mm 2 m/s 725 mmHg 92%
    10:00 +14°C° 0 mm 2 m/s 725 mmHg 91%
    11:00 +14°C° 0 mm 3 m/s 725 mmHg 89%
    12:00 +14°C° 0.1 mm 2 m/s 724 mmHg 90%
    13:00 +14°C° 0.1 mm 2 m/s 724 mmHg 91%
    14:00 +14°C° 0.1 mm 2 m/s 723 mmHg 91%
    15:00 +14°C° 1.7 mm 2 m/s 724 mmHg 93%
    16:00 +14°C° 1.7 mm 2 m/s 724 mmHg 95%
    17:00 +13°C° 1.7 mm 2 m/s 724 mmHg 97%
    18:00 +13°C° 1.1 mm 2 m/s 724 mmHg 97%
    19:00 +13°C° 1.1 mm 2 m/s 724 mmHg 97%
    20:00 +13°C° 1.1 mm 2 m/s 724 mmHg 97%
    21:00 +13°C° 0 mm 2 m/s 724 mmHg 97%
    22:00 +12°C° 0 mm 2 m/s 724 mmHg 97%
    23:00 +12°C° 0 mm 2 m/s 725 mmHg 96%
    Voir plus